This is the latest recevied weather packets stored in our database for station/object PY2VE-13. If no packets are shown the sender has not sent any weather packets the latest 10 day(s).
| Time | Temp. | Humidity | Pressure | Rain* | Wind** | Luminosity | Snow |
|---|---|---|---|---|---|---|---|
| 1778077136 | 30.56° C | 39% | 1024.3 hPa | - | - | - | - |
| 1778076236 | 30.56° C | 39% | 1024.5 hPa | - | - | - | - |
| 1778075341 | 30° C | 40% | 1024.9 hPa | - | - | - | - |
| 1778074436 | 30.56° C | 40% | 1025.1 hPa | - | - | - | - |
| 1778073536 | 30° C | 40% | 1025.4 hPa | - | - | - | - |
| 1778071736 | 29.44° C | 42% | 1025.6 hPa | - | - | - | - |
| 1778070836 | 28.33° C | 43% | 1025.8 hPa | - | - | - | - |
| 1778069936 | 28.89° C | 43% | 1025.6 hPa | - | - | - | - |
| 1778069036 | 27.78° C | 44% | 1025.6 hPa | - | - | - | - |
| 1778068136 | 27.78° C | 45% | 1025.6 hPa | - | - | - | - |
| 1778067236 | 26.67° C | 46% | 1025.7 hPa | - | - | - | - |
| 1778066336 | 26.11° C | 48% | 1025.6 hPa | - | - | - | - |
| 1778065436 | 25° C | 50% | 1025.6 hPa | - | - | - | - |
| 1778064536 | 24.44° C | 52% | 1025.5 hPa | - | - | - | - |
| 1778063636 | 24.44° C | 53% | 1025.5 hPa | - | - | - | - |
| 1778062736 | 24.44° C | 53% | 1025.3 hPa | - | - | - | - |
| 1778061836 | 24.44° C | 52% | 1025 hPa | - | - | - | - |
| 1778060936 | 23.33° C | 56% | 1025.4 hPa | - | - | - | - |
| 1778060036 | 23.89° C | 54% | 1025 hPa | - | - | - | - |
| 1778059136 | 25° C | 52% | 1024.5 hPa | - | - | - | - |
| 1778058236 | 25° C | 52% | 1024.3 hPa | - | - | - | - |
| 1778057335 | 23.89° C | 54% | 1024.2 hPa | - | - | - | - |
| 1778056436 | 24.44° C | 53% | 1023.9 hPa | - | - | - | - |
| 1778055536 | 25° C | 52% | 1023.7 hPa | - | - | - | - |
| 1778054635 | 24.44° C | 53% | 1023.7 hPa | - | - | - | - |
* Rain since midnight (hover to see other rain measurements)
** Current wind speed in m/s (hover to see current wind gust speed)